[[{"header":{"parameterUnit":"m.s-1","parameterCategory":1,"la1":30.2991,"la2":30.254,"lo1":-89.0895,"lo2":-89.0444,"dy":0.0017,"dx":0.0017,"nx":28,"ny":28,"refTime":"2025-08-08T03:00:00:Z","depth":0,"parameterNumber":2,"parameterNumberName":"U-component_of_WINDS"},"data":[0,0,0,0,0,0,0,0,0,0,0,0,0,0,0,0,0,0,0,0,0,0,0,0,0,0,0,0,0,0,0,0,0,0,0,0,0,0,0,0,0,0,0,0,0,0,0,0,0,0,0,0,0,0,0,0,0,0,-2.8792,-2.8792,0,-2.8824,-2.8825,-2.8825,-2.875,-2.8748,-2.8745,-2.8743,-2.8779,-2.8782,-2.8785,0,0,0,0,0,0,0,0,0,0,0,0,0,-2.8668,-2.867,-2.8792,-2.8792,-2.8793,-2.8824,-2.8825,-2.8825,-2.8751,-2.8748,-2.8745,-2.8742,-2.8778,-2.8781,-2.8785,0,0,0,0,0,0,0,0,0,0,0,0,0,-2.8713,-2.8671,-2.8792,-2.8759,-2.8757,-2.8824,-2.8825,-2.8825,-2.8751,-2.8748,-2.8744,-2.8741,-2.8776,-2.8781,-2.8786,-2.8887,0,0,-2.88,-2.8802,0,0,0,0,0,0,0,0,-2.8711,-2.8718,-2.8763,-2.8761,-2.8759,-2.878,-2.8794,-2.8846,-2.8752,-2.8753,-2.8743,-2.8739,-2.8782,-2.8786,-2.88,-2.8889,-2.889,-2.8801,-2.8803,-2.8806,-2.8807,0,0,0,0,0,0,0,-2.8708,-2.8716,-2.8805,-2.8764,-2.8761,-2.8744,-2.8746,-2.8803,-2.8788,-2.8753,-2.8748,-2.8752,-2.878,-2.8796,-2.88,-2.8891,-2.88,-2.8805,-2.8808,-2.8809,-2.9065,-2.9069,0,0,0,0,0,0,-2.8708,-2.8714,-2.8804,-2.8806,-2.8725,-2.8749,-2.8752,-2.8777,-2.8787,-2.8785,-2.8755,-2.8749,-2.8789,-2.8795,-2.8801,-2.8921,-2.8805,-2.881,-2.8813,-2.9062,-2.9066,-2.9071,0,0,0,0,0,0,-2.8706,-2.8717,-2.8802,-2.8758,-2.8768,-2.8755,-2.8783,-2.8779,-2.8795,-2.8788,-2.8785,-2.8774,-2.8787,-2.8795,-2.8866,-2.8921,-2.8812,-2.8816,-2.9057,-2.9063,-2.9068,-2.9161,0,0,0,0,0,0,-2.8703,-2.8717,-2.8754,-2.876,-2.877,-2.8866,-2.8787,-2.8782,-2.8803,-2.8794,-2.8805,-2.8804,-2.8784,-2.886,-2.8871,-2.8926,-2.882,-2.9052,-2.906,-2.9067,-2.9153,-2.9169,-2.9183,0,0,0,0,0,-2.8698,-2.8779,-2.8756,-2.8768,-2.8817,-2.8869,-2.8876,-2.8851,-2.8808,-2.8846,-2.8842,-2.8803,-2.8914,-2.8868,-2.888,-2.8937,-2.9048,-2.9057,-2.9066,-2.9146,-2.9166,-2.9183,0,0,0,0,0,0,-2.878,-2.8779,-2.8754,-2.8838,-2.8855,-2.8857,-2.8904,-2.8873,-2.8902,-2.8893,-2.8863,-2.8866,-2.8944,-2.8948,-2.8896,-2.9036,-2.8974,-2.8985,-2.903,-2.9049,-2.9064,-2.9061,-2.8824,0,0,0,0,0,-2.8808,-2.885,-2.8847,-2.8922,-2.8931,-2.8917,-2.8938,-2.8919,-2.8934,-2.8941,-2.8942,-2.896,-2.8998,-2.9024,-2.9059,-2.9154,-2.9155,-2.9199,-2.9214,-2.9227,-2.9237,-2.9288,-2.9308,-2.91,-2.91,-2.9099,0,0,-2.8866,-2.8871,-2.8899,-2.8939,-2.8949,-2.8994,-2.8923,-2.8973,-2.9006,-2.8948,-2.9016,-2.9018,-2.9036,-2.912,-2.9157,-2.9125,-2.9295,-2.9238,-2.9248,-2.9251,-2.9299,-2.9319,-2.9336,-2.9106,-2.9105,-2.9104,0,0,-2.8994,-2.9002,-2.9065,-2.9077,-2.9094,-2.9083,-2.9099,-2.9106,-2.9105,-2.9173,-2.9131,-2.9171,-2.9238,-2.9252,-2.9268,-2.9405,-2.937,-2.9417,-2.9496,-2.9546,-2.9563,-2.9577,-2.9626,-2.9644,-2.9428,-2.9428,-2.9428,0,-2.9064,-2.9129,-2.9102,-2.9156,-2.9175,-2.9125,-2.919,-2.9203,-2.923,-2.9245,-2.921,-2.9293,-2.9302,-2.9388,-2.9422,-2.9437,-2.9454,-2.9415,-2.9562,-2.9576,-2.9589,-2.9636,-2.9654,-2.9433,-2.9433,-2.9432,-2.9432,0,-2.9215,-2.9261,-2.931,-2.9338,-2.9363,-2.9422,-2.9404,-2.9433,-2.9412,-2.9406,-2.9477,-2.9485,-2.9521,-2.9541,-2.9521,-2.9626,-2.9606,-2.9567,-2.9503,-2.9615,-2.9658,-2.9676,-2.9441,-2.9439,-2.9438,-2.9436,0,0,-2.9394,-2.9406,-2.9425,-2.9437,-2.9452,-2.9488,-2.9546,-2.9581,-2.9606,-2.9628,-2.9676,-2.9735,-2.9699,-2.9718,-2.9699,-2.9743,-2.9851,-2.9699,-2.9699,-2.9727,-2.9968,-2.9997,-3.0017,-2.9829,-2.9833,-2.9835,-2.9967,0,-2.952,-2.9618,-2.9596,-2.9693,-2.9735,-2.969,-2.974,-2.9756,-2.9753,-2.9789,-2.9786,-2.9828,-2.9778,-2.9789,-2.9831,-2.9829,-2.9899,-2.982,-2.9874,-2.9876,-2.987,-3.004,-3.007,-3.0193,-2.9983,-2.9986,-2.9988,0,-2.968,-2.9707,-2.9808,-2.9818,-2.9835,-2.988,-2.9912,-2.9947,-2.9965,-2.9959,-2.9981,-2.9955,-3.0013,-2.995,-3.0031,-2.9977,-2.9998,-3.0001,-3.0006,-3.0009,-2.9938,-3.0047,-3.0232,-3.025,-3.0014,-3.0012,-3.001,0,-2.98,-2.9863,-2.9931,-2.9943,-2.9956,-2.9989,-2.9996,-3.001,-3.0033,-3.0061,-3.0076,-3.0111,-3.013,-3.0158,-3.0142,-3.0098,-3.0226,-3.0161,-3.0224,-3.0224,-3.0251,-3.025,-3.0441,-3.0267,-3.0267,-3.0266,-3.0266,0,-2.9944,-3.0007,-2.9985,-3.0027,-3.0098,-3.0073,-3.0144,-3.0145,-3.0159,-3.0201,-3.0165,-3.0206,-3.0182,-3.0222,-3.021,-3.0279,-3.0288,-3.0286,-3.0282,-3.0289,-3.0289,-3.0302,-3.0293,-3.0271,-3.027,-3.0269,-3.0268,0,-3.0089,-3.0077,-3.0148,-3.0155,-3.0158,-3.021,-3.0216,-3.0256,-3.0251,-3.0305,-3.0317,-3.0309,-3.0354,-3.0341,-3.039,-3.0382,-3.0469,-3.0454,-3.0463,-3.0459,-3.0522,-3.0516,-3.0728,-3.0754,-3.0563,-3.0565,-3.0567,0,-3.018,-3.0228,-3.024,-3.0266,-3.0276,-3.0317,-3.0341,-3.0319,-3.0346,-3.037,-3.0408,-3.0449,-3.0481,-3.0555,-3.0555,-3.0592,-3.0578,-3.065,-3.0583,-3.0589,-3.0579,-3.0576,-3.0581,-3.0663,-3.0665,-3.0667,-3.0668,0,-3.0345,-3.0337,-3.0371,-3.0405,-3.0434,-3.0459,-3.0481,-3.0505,-3.0485,-3.0517,-3.0562,-3.0587,-3.0637,-3.0679,-3.0714,-3.0722,-3.0693,-3.0689,-3.0705,-3.0713,-3.0715,-3.0715,-3.0498,-3.0684,-3.0682,-3.0681,-3.068,-3.068,-3.0466,-3.0506,-3.0521,-3.0562,-3.0576,-3.0598,-3.0636,-3.0636,-3.0673,-3.0712,-3.0697,-3.075,-3.0768,-3.0811,-3.0824,-3.0866,-3.0838,-3.0862,-3.0868,-3.0874,-3.0882,-3.071,-3.0872,-3.0871,-3.0871,-3.0871,-3.087,0,-3.0628,-3.0635,-3.0673,-3.0705,-3.0737,-3.0706,-3.073,-3.0759,-3.0805,-3.0824,-3.0857,-3.091,-3.0951,-3.0954,-3.0993,-3.1026,-3.1014,-3.1037,-3.1034,-3.1037,-3.0904,-3.0886,-3.1047,-3.1046,-3.1046,-3.1046,-3.1046,-3.1046,-3.0716,-3.0783,-3.0777,-3.0852,-3.0859,-3.091,-3.0926,-3.0947,-3.0962,-3.1022,-3.1056,-3.1058,-3.1071,-3.1111,-3.1148,-3.1148,-3.1164,-3.1193,-3.1188,-3.1063,-3.1046,-3.1029,-3.1012,-3.1196,-3.1197,-3.1317,-3.1318,-3.1319]},{"header":{"parameterUnit":"m.s-1","parameterCategory":1,"la1":30.2991,"la2":30.254,"lo1":-89.0895,"lo2":-89.0444,"dy":0.0017,"dx":0.0017,"nx":28,"ny":28,"refTime":"2025-08-08T03:00:00:Z","depth":0,"parameterNumber":3,"parameterNumberName":"V-component_of_WINDS"},"data":[0,0,0,0,0,0,0,0,0,0,0,0,0,0,0,0,0,0,0,0,0,0,0,0,0,0,0,0,0,0,0,0,0,0,0,0,0,0,0,0,0,0,0,0,0,0,0,0,0,0,0,0,0,0,0,0,0,0,3.2192,3.2192,0,3.2199,3.2199,3.22,3.2212,3.2212,3.2212,3.2212,3.2219,3.2219,3.2219,0,0,0,0,0,0,0,0,0,0,0,0,0,3.2189,3.2189,3.2192,3.2192,3.2193,3.2199,3.2199,3.22,3.2212,3.2212,3.2212,3.2212,3.2219,3.2219,3.2219,0,0,0,0,0,0,0,0,0,0,0,0,0,3.2193,3.2189,3.2192,3.2199,3.22,3.2199,3.2199,3.22,3.2212,3.2212,3.2212,3.2213,3.2219,3.2219,3.2219,3.2212,0,0,3.2219,3.2219,0,0,0,0,0,0,0,0,3.2192,3.2193,3.2198,3.2199,3.22,3.2205,3.2201,3.2204,3.2211,3.2207,3.2212,3.2213,3.2214,3.2214,3.2215,3.2212,3.2212,3.2219,3.2219,3.2219,3.2219,0,0,0,0,0,0,0,3.2192,3.2192,3.2195,3.2198,3.2199,3.2202,3.2203,3.2201,3.2209,3.2208,3.2208,3.2209,3.2214,3.2215,3.2215,3.2212,3.2219,3.2219,3.2219,3.2219,3.2203,3.2203,0,0,0,0,0,0,3.2191,3.2192,3.2195,3.2195,3.2197,3.2202,3.2203,3.2203,3.2209,3.221,3.2209,3.221,3.2215,3.2215,3.2215,3.2207,3.2219,3.2219,3.2219,3.2204,3.2203,3.2203,0,0,0,0,0,0,3.2191,3.2191,3.2195,3.2194,3.2195,3.2202,3.2202,3.2203,3.2203,3.221,3.2211,3.2208,3.2215,3.2216,3.2212,3.2207,3.2219,3.2218,3.2204,3.2204,3.2203,3.219,0,0,0,0,0,0,3.2191,3.2191,3.2188,3.2194,3.2195,3.2192,3.2201,3.2203,3.2203,3.2204,3.2209,3.221,3.2215,3.2212,3.2212,3.2207,3.2218,3.2205,3.2204,3.2203,3.2191,3.2189,3.2187,0,0,0,0,0,3.219,3.2184,3.2188,3.2188,3.2192,3.2191,3.2192,3.2198,3.2203,3.22,3.2204,3.221,3.2208,3.2212,3.2212,3.2207,3.2205,3.2204,3.2203,3.2191,3.2189,3.2187,0,0,0,0,0,0,3.2178,3.2185,3.2189,3.2185,3.2187,3.2193,3.219,3.2195,3.2196,3.2197,3.2205,3.2206,3.2202,3.2204,3.2208,3.22,3.2207,3.2206,3.2198,3.2196,3.2195,3.2194,3.2218,0,0,0,0,0,3.2174,3.2174,3.218,3.2175,3.2177,3.2183,3.2183,3.2188,3.2191,3.2192,3.2195,3.2198,3.2198,3.2197,3.2197,3.2191,3.2192,3.2188,3.2186,3.2185,3.2184,3.218,3.2178,3.22,3.22,3.22,0,0,3.2167,3.2171,3.217,3.2173,3.2175,3.2174,3.2184,3.2182,3.2181,3.2191,3.2188,3.2191,3.2194,3.219,3.2188,3.2192,3.2178,3.2184,3.2182,3.2182,3.2179,3.2177,3.2175,3.2199,3.22,3.22,0,0,3.2154,3.2157,3.2153,3.2156,3.2159,3.2164,3.2163,3.2168,3.217,3.2168,3.2175,3.2174,3.2174,3.2176,3.2176,3.2164,3.2169,3.2164,3.2154,3.2151,3.2149,3.2147,3.2142,3.214,3.2163,3.2163,3.2163,0,3.2144,3.2143,3.2151,3.2148,3.2149,3.2159,3.2155,3.2157,3.216,3.216,3.2165,3.2164,3.2167,3.2162,3.2159,3.216,3.2159,3.2163,3.2149,3.2147,3.2146,3.2141,3.2139,3.2162,3.2162,3.2162,3.2162,0,3.2131,3.213,3.2127,3.213,3.213,3.2127,3.2134,3.2134,3.2138,3.2142,3.2139,3.2143,3.2144,3.2144,3.2148,3.214,3.2142,3.2147,3.2155,3.2143,3.2138,3.2136,3.2161,3.2161,3.2161,3.2162,0,0,3.2109,3.2117,3.2115,3.2117,3.2122,3.2121,3.2118,3.2119,3.2118,3.2121,3.2118,3.2118,3.2123,3.2124,3.2129,3.2126,3.2115,3.2132,3.2132,3.2128,3.2105,3.21,3.2097,3.2119,3.2118,3.2118,3.2104,0,3.2096,3.2092,3.2099,3.2093,3.2092,3.2101,3.2098,3.2101,3.2105,3.2104,3.2108,3.2107,3.2115,3.2115,3.2113,3.2117,3.211,3.2118,3.2116,3.2116,3.2114,3.2095,3.209,3.2076,3.2102,3.2102,3.2102,0,3.208,3.2081,3.2075,3.208,3.208,3.2078,3.2079,3.2079,3.2082,3.2085,3.2086,3.2092,3.2089,3.2097,3.2093,3.2099,3.2098,3.21,3.21,3.2099,3.2107,3.2093,3.2072,3.207,3.2099,3.21,3.21,0,3.2063,3.2064,3.206,3.2061,3.2067,3.2065,3.2068,3.2071,3.2071,3.2073,3.2073,3.2074,3.2074,3.2075,3.208,3.2086,3.2076,3.2084,3.2077,3.2077,3.2074,3.2074,3.2052,3.2075,3.2075,3.2075,3.2075,0,3.2047,3.2043,3.2053,3.205,3.2046,3.2054,3.2049,3.2052,3.2055,3.2054,3.2062,3.206,3.2068,3.2067,3.2072,3.2068,3.2068,3.207,3.2071,3.2068,3.2068,3.2068,3.2068,3.2075,3.2075,3.2075,3.2075,0,3.2028,3.2034,3.2031,3.2037,3.2038,3.2034,3.2039,3.2037,3.2042,3.2039,3.2039,3.2046,3.2045,3.2051,3.2052,3.2055,3.2048,3.2051,3.2047,3.2047,3.204,3.204,3.2016,3.2013,3.2039,3.2039,3.2039,0,3.2016,3.2013,3.2019,3.2019,3.2021,3.202,3.202,3.2028,3.2028,3.2031,3.2028,3.2028,3.2028,3.2026,3.2031,3.2031,3.2034,3.2026,3.2034,3.2032,3.2033,3.2032,3.2032,3.2023,3.2023,3.2023,3.2023,0,3.1996,3.1999,3.1999,3.2,3.2,3.2002,3.2003,3.2002,3.2011,3.201,3.2009,3.201,3.201,3.2009,3.2011,3.2013,3.2019,3.202,3.2018,3.2015,3.2012,3.2013,3.2041,3.202,3.2021,3.2021,3.2021,3.2021,3.1979,3.1977,3.198,3.198,3.1982,3.1984,3.1982,3.1986,3.1986,3.1987,3.1992,3.199,3.1993,3.1995,3.1997,3.1995,3.1999,3.1997,3.1996,3.1995,3.1993,3.2014,3.1995,3.1996,3.1996,3.1996,3.1996,0,3.1958,3.1961,3.1961,3.1963,3.1963,3.1969,3.1971,3.197,3.1969,3.1971,3.1971,3.197,3.197,3.1975,3.1975,3.1973,3.1975,3.1972,3.1972,3.1972,3.199,3.1991,3.197,3.197,3.197,3.197,3.197,3.197,3.1947,3.1943,3.1947,3.1944,3.1947,3.1945,3.1946,3.1947,3.1949,3.1947,3.1947,3.195,3.1954,3.1954,3.1954,3.1955,3.1954,3.195,3.1952,3.1969,3.1971,3.1973,3.1974,3.195,3.195,3.1934,3.1934,3.1934]}]]